EW4462 Weather Reports


Display with metric or nautical units.
time (UTC)temp
F
wind
direction
speed
MPH
gust
MPH
rain 1hr
in
rain 24hr
in
rain mn
in
humidity
%
barometer
mb
20260901234418 80 105 0.0 0.0 0.00 0.00 0.00 64 1014.7
20260901233423 80 109 0.0 0.0 0.00 0.00 0.00 64 1014.8
20260901231253 79 103 0.0 0.0 0.00 0.00 0.00 65 1014.8
20260901225137 80 103 0.0 0.0 0.00 0.00 0.00 62 1014.8
20260901224109 81 65 0.0 0.0 0.00 0.00 0.00 62 1014.9
20260901223036 82 161 0.0 0.0 0.00 0.00 0.00 62 1015.0
20260901220945 81 109 0.0 1.0 0.00 0.00 0.00 63 1015.2
20260901215946 81 138 0.0 0.0 0.00 0.00 0.00 62 1015.3
20260901214945 81 110 0.0 0.0 0.00 0.00 0.00 62 1015.5
20260901213942 82 113 0.0 0.0 0.00 0.00 0.00 61 1015.5
20260901212944 82 121 0.0 0.0 0.00 0.00 0.00 60 1015.6
20260901210835 81 153 0.0 0.0 0.00 0.00 0.00 62 1015.5
20260901205808 81 84 0.0 4.0 0.00 0.00 0.00 61 1015.6
20260901204802 82 111 0.0 0.0 0.00 0.00 0.00 59 1015.5
20260901203736 81 163 0.0 0.0 0.00 0.00 0.00 57 1015.6
20260901202704 81 107 0.0 0.0 0.00 0.00 0.00 61 1015.6
20260901201635 81 89 0.0 0.0 0.00 0.00 0.00 61 1015.6
20260901200645 81 115 0.0 0.0 0.00 0.00 0.00 61 1015.6
20260901195707 81 100 0.0 0.0 0.00 0.00 0.00 62 1015.7
20260901194643 81 95 0.0 0.0 0.00 0.00 0.00 60 1015.7
20260901193639 81 126 0.0 0.0 0.00 0.00 0.00 62 1015.8
20260901192627 81 94 0.0 0.0 0.00 0.00 0.00 60 1015.9
20260901191615 80 91 0.0 0.0 0.00 0.00 0.00 63 1016.0
20260901190556 80 85 0.0 0.0 0.00 0.00 0.00 63 1016.0
20260901185529 80 107 0.0 1.0 0.00 0.00 0.00 63 1016.1
20260901184536 80 115 0.0 1.0 0.00 0.00 0.00 64 1016.2
20260901183511 80 89 0.0 1.0 0.00 0.00 0.00 64 1016.2
20260901182516 80 107 0.0 0.0 0.00 0.00 0.00 65 1016.3
20260901181504 79 99 0.0 0.0 0.00 0.00 0.00 66 1016.3
20260901180503 79 88 0.0 0.0 0.00 0.00 0.00 67 1016.4
20260901175516 79 86 0.0 0.0 0.00 0.00 0.00 67 1016.3
20260901174514 79 98 0.0 0.0 0.00 0.00 0.00 67 1016.3
20260901173441 80 86 0.0 0.0 0.00 0.00 0.00 67 1016.3
20260901172416 79 150 0.0 0.0 0.00 0.00 0.00 66 1016.3
20260901171416 79 165 0.0 0.0 0.00 0.00 0.00 67 1016.2
20260901170341 77 163 0.0 0.0 0.00 0.00 0.00 70 1016.2
20260901165349 78 163 0.0 0.0 0.00 0.00 0.00 69 1016.1
20260901164406 77 216 0.0 0.0 0.00 0.00 0.00 73 1016.0
20260901163417 75 159 0.0 0.0 0.00 0.00 0.00 75 1016.2
20260901162358 74 155 0.0 0.0 0.00 0.00 0.00 75 1016.2
20260901160223 73 223 0.0 0.0 0.00 0.00 0.00 80 1016.0
20260901155232 72 217 0.0 0.0 0.00 0.00 0.00 81 1016.0
20260901154223 71 223 0.0 0.0 0.00 0.00 0.00 82 1015.9
20260901153157 71 231 0.0 0.0 0.00 0.00 0.00 83 1015.9
20260901152147 70 167 0.0 0.0 0.00 0.00 0.00 85 1015.8
20260901151117 69 157 0.0 0.0 0.00 0.00 0.00 88 1015.7
20260901150047 68 144 0.0 0.0 0.00 0.00 0.00 90 1015.6
20260901145045 67 144 0.0 0.0 0.00 0.00 0.00 93 1015.6
20260901142919 64 144 0.0 0.0 0.00 0.00 0.00 92 1015.5
20260901141942 64 144 0.0 0.0 0.00 0.00 0.00 92 1015.5
20260901141007 64 144 0.0 0.0 0.00 0.00 0.00 92 1015.5
20260901140021 63 144 0.0 0.0 0.00 0.00 0.00 91 1015.4
20260901135023 63 144 0.0 0.0 0.00 0.00 0.00 91 1015.2
20260901134023 63 144 0.0 0.0 0.00 0.00 0.00 91 1015.1
20260901132954 63 144 0.0 0.0 0.00 0.00 0.00 91 1014.9
20260901131945 64 144 0.0 0.0 0.00 0.00 0.00 91 1014.7
20260901130922 64 144 0.0 0.0 0.00 0.00 0.00 91 1014.5
20260901125914 64 144 0.0 0.0 0.00 0.00 0.00 91 1014.6
20260901124858 64 144 0.0 0.0 0.00 0.00 0.00 91 1014.4
20260901123923 64 144 0.0 0.0 0.00 0.00 0.00 90 1014.4
20260901122942 64 144 0.0 0.0 0.00 0.00 0.00 90 1014.3
20260901120808 64 144 0.0 0.0 0.00 0.00 0.00 90 1014.3
20260901115739 65 144 0.0 0.0 0.00 0.00 0.00 90 1014.3
20260901114744 65 144 0.0 0.0 0.00 0.00 0.00 90 1014.3
20260901113740 65 144 0.0 0.0 0.00 0.00 0.00 90 1014.4
20260901111612 65 144 0.0 0.0 0.00 0.00 0.00 90 1014.5
20260901110541 66 144 0.0 0.0 0.00 0.00 0.00 90 1014.5
20260901105538 66 144 0.0 0.0 0.00 0.00 0.00 90 1014.6
20260901104513 66 144 0.0 0.0 0.00 0.00 0.00 90 1014.6
20260901103441 67 144 0.0 0.0 0.00 0.00 0.00 90 1014.5
20260901102426 67 144 0.0 0.0 0.00 0.00 0.00 90 1014.6
20260901101404 67 144 0.0 0.0 0.00 0.00 0.00 90 1014.6
20260901100423 68 144 0.0 0.0 0.00 0.00 0.00 90 1014.6
20260901095438 68 144 0.0 0.0 0.00 0.00 0.00 91 1014.7
20260901094409 68 144 0.0 0.0 0.00 0.00 0.00 91 1014.8
20260901093426 68 144 0.0 0.0 0.00 0.00 0.00 91 1014.8
20260901092427 68 144 0.0 0.0 0.00 0.00 0.00 91 1014.7
20260901091416 67 144 0.0 0.0 0.00 0.00 0.00 91 1014.6
20260901090413 67 144 0.0 0.0 0.00 0.00 0.00 91 1014.6
20260901085340 67 144 0.0 0.0 0.00 0.00 0.00 91 1014.6
20260901083120 66 144 0.0 0.0 0.00 0.00 0.00 91 1014.7
20260901082144 66 144 0.0 0.0 0.00 0.00 0.00 90 1014.7
20260901081127 66 144 0.0 0.0 0.00 0.00 0.00 90 1014.8
20260901074922 67 144 0.0 0.0 0.00 0.00 0.00 89 1014.8
20260901072811 67 144 0.0 0.0 0.00 0.00 0.00 89 1014.9
20260901071821 67 144 0.0 0.0 0.00 0.00 0.00 89 1014.9
20260901070839 67 144 0.0 0.0 0.00 0.00 0.00 89 1014.8
20260901065832 67 144 0.0 0.0 0.00 0.00 0.00 89 1014.9
20260901064814 67 144 0.0 0.0 0.00 0.00 0.00 88 1014.8
20260901063744 68 144 0.0 0.0 0.00 0.00 0.00 88 1014.8
20260901060423 68 144 0.0 0.0 0.00 0.00 0.00 88 1014.8
20260901055410 68 144 0.0 0.0 0.00 0.00 0.00 87 1014.8
20260901054403 68 144 0.0 0.0 0.00 0.00 0.00 87 1014.7
20260901053404 68 144 0.0 0.0 0.00 0.00 0.00 87 1014.7
20260901052338 68 144 0.0 0.0 0.00 0.00 0.00 86 1014.7
20260901050148 69 144 0.0 0.0 0.00 0.00 0.00 85 1014.6
20260901045139 69 144 0.0 0.0 0.00 0.00 0.00 84 1014.6
20260901044120 69 144 0.0 0.0 0.00 0.00 0.00 84 1014.5
20260901043058 70 144 0.0 0.0 0.00 0.00 0.00 84 1014.4
20260901042026 70 144 0.0 0.0 0.00 0.00 0.00 84 1014.5
20260901041009 70 144 0.0 0.0 0.00 0.00 0.00 84 1014.5
20260901040026 70 144 0.0 0.0 0.00 0.00 0.00 83 1014.5
20260901033953 71 144 0.0 0.0 0.00 0.00 0.00 82 1014.2
20260901032950 71 144 0.0 0.0 0.00 0.00 0.00 82 1014.1
20260901032013 71 144 0.0 0.0 0.00 0.00 0.00 82 1013.8
20260901024730 72 144 0.0 0.0 0.00 0.00 0.00 80 1013.3
20260901023754 73 144 0.0 0.0 0.00 0.00 0.00 80 1013.2
20260901022806 73 144 0.0 0.0 0.00 0.00 0.00 80 1013.2
20260901021824 73 144 0.0 0.0 0.00 0.00 0.00 79 1013.2
20260901020829 74 148 0.0 0.0 0.00 0.00 0.00 78 1013.1
20260901015841 74 150 0.0 0.0 0.00 0.00 0.00 77 1012.9
20260901014835 75 153 0.0 0.0 0.00 0.00 0.00 75 1012.8
20260901013827 75 111 0.0 0.0 0.00 0.00 0.00 74 1012.8
20260901012827 76 111 0.0 0.0 0.00 0.00 0.00 72 1013.0
20260901011840 76 115 0.0 0.0 0.00 0.00 0.00 71 1012.9
20260901010851 77 121 0.0 0.0 0.00 0.00 0.00 70 1013.1
20260901005825 77 112 0.0 0.0 0.00 0.00 0.00 69 1013.2
20260901003723 79 159 0.0 0.0 0.00 0.00 0.00 70 1013.3
20260901002746 80 159 0.0 0.0 0.00 0.00 0.00 68 1013.3
20260901001740 81 109 0.0 0.0 0.00 0.00 0.00 67 1013.3
20260901000714 81 127 0.0 0.0 0.00 0.00 0.00 67 1013.3
20260831235643 81 117 0.0 0.0 0.00 0.00 0.00 68 1013.3
20260831234647 81 105 0.0 0.0 0.00 0.00 0.00 69 1013.5